OPS 4682 DEB, 51492

Orbit data source: Space-Track

OPS 4682 DEB, 51492 is space debris in LEO originally from a launch on Sat, 03 Apr 1965 UTC launched from the Air Force Western Test Range (AFWTR). Debris objects in space refer to the collection of defunct objects orbiting the Earth. Examples of debris include non-operational satellites, rocket bodies, and fragments generated from explosions, collisions, or faulty payload assembly.

Loading next visibility...
Identifier
51492, 1965-027GC
Orbit
LEO
Country
Flag of USUS
Related business
Manufacturer
Unknown
Mission
Spacecraft
Bus & Motor
Unknown
Mass
Unknown
Launch date (UTC)
1965-04-03 (61 years ago)
Launch vehicle
Unknown
Launch site
Air Force Western Test Range (AFWTR)
Object type
Payload
Rocket body
Debris
Shape & HBR
Unknown shape, 1.1 m
Radar Cross Section
Medium (>0.1 m² and <1 m²)

Expand to show TLE details & history
Last TLE update: 20 hours ago

TLE from 20 hours ago
0 OPS 4682 DEB
1 51492U 65027GC  26221.20803404 -.00000330  00000-0 -11225-2 0  9996
2 51492  90.2594  18.9711 0030989 144.1962  32.6190 12.99879078770662
Epoch: 2026-08-09T04:59Z
TLE epoch observation values (Epoch: 2026-08-09T04:59:34.141Z)
Latitude
2.89726°
Longitude
166.38358°
Altitude
1,245.189 km
Speed
7.242 km/s
True Right ascension
13h 15m 56s
True Declination
2° 52' 52"
Sunlit
Object was in daylight at epoch
Visualization orbit readout
Latitude
Unknown
Longitude
Unknown
Altitude
Unknown
Speed
Unknown
Apparent Right ascension
Unknown
Apparent Declination
Unknown
Sunlit
N/A
Visualization observer readout
Local Sidereal Time
15:28:48
Azimuth
Unknown
Elevation
Unknown
Doppler factor
Unknown
Orbital elements
Apogee altitude
1,283.356 km
Perigee altitude
1,236.019 km
Semi-major axis
7,637.825 km
Eccentricity
0.0031
Inclination
90.2594°
RAAN
18.9711°
Arg. of periapsis
144.1962°
True anomaly
32.81105°
Mean anomaly
32.619°
Eccentric anomaly
32.71496°
Mean motion
3.25154 °/min
Orbital period
110.72 mins
BSTAR
-0.0011225
Loading maneuver chart data...
Computing Atmospheric mass density...
Loading historical data...
Loading historical data...
Loading historical data...
Loading historical data...
Loading historical data...
Loading historical data...
Loading historical data...

Documentation

Showing up to 5 results
|